Regional Weather Roundup
Issued by NWS

Home | Current Version | Previous Version | Graphics & Text | Print | Product List | Glossary On
Versions: 1 2 3 4 5 6 7 8 9 10 11 12 13 14 15 16 17 18 19 20 21 22 23 24 25 26 27 28 29 30 31 32 33 34 35 36 37 38 39 40 41 42 43 44 45 46 47 48 49 50
000
ASUS43 KIND 251609
RWRIN

WEATHER ROUNDUP FOR INDIANA
NATIONAL WEATHER SERVICE INDIANAPOLIS IN
1200 PM EDT THU AUG 25 2016

NOTE: "FAIR" INDICATES FEW OR NO CLOUDS BELOW 12,000 FEET WITH NO
SIGNIFICANT WEATHER AND/OR OBSTRUCTIONS TO VISIBILITY.

* - STATION DOES NOT REPORT WEATHER SUCH AS PRECIPITATION OR FOG.

+ - STATION NOT QUALITY CONTROLLED BY THE NATIONAL WEATHER SERVICE.
    USE DATA WITH CAUTION...ESPECIALLY DEWPOINT AND RELATIVE
    HUMIDITY OBSERVATIONS.

INZ001>003-010>013-019-020-251700-
NORTHWEST INDIANA

CITY           SKY/WX    TMP DP  RH WIND       PRES   REMARKS
GARY /AIRPORT/ PTSUNNY   77  72  83 W8        30.03R
KNOX *+        CLOUDY    77  50  38 SW10      30.02R
LA PORTE +     CLOUDY    77  77 100 W10       30.04R
MICHIGAN CITY+ CLOUDY    73  73 100 MISG      30.03R
MONTICELLO +   SUNNY     79  67  66 W9        30.04R
RENSSELAER +   PTSUNNY   79  72  78 SW10G18   30.05R
VALPARAISO     CLOUDY    76  69  79 W9        30.03R

$$

LMZ046-743>745-251700-
SOUTHERN LAKE MICHIGAN

STATION/POSITION TIME  TEMP    WIND        PRES    WAVE
                       AIR SEA DIR/SP/G            HT
                 (UTC) (F)     (DEG/KT/KT) (MB)    (FT)
BURNS HARBOR     1515   74     250/ 10/ 15 1016.6R
MICHIGAN CITY    1500   74     220/ 13/ 15   N/A
5NW MICH CITY    1600   74 73  260/ 12/ 14   N/A     2

$$

INZ004-005-014>016-021>024-251700-
NORTH CENTRAL INDIANA

CITY           SKY/WX    TMP DP  RH WIND       PRES   REMARKS
ELKHART        SUNNY     77  70  78 SW12      30.01
GOSHEN         MOSUNNY   80  68  66 SW10      30.01S
LOGANSPORT +   MOSUNNY   79  68  69 SW14      30.06R
PERU/GRISSOM   SUNNY     81  70  70 W12       30.04S
ROCHESTER +    SUNNY     82  72  69 SW9       30.04S
SOUTH BEND     PTSUNNY   77  70  79 W10       30.03R
WARSAW +       MOSUNNY   79  72  78 SW8       30.02F

$$

INZ006>009-017-018-025>027-251700-
NORTHEAST INDIANA

CITY           SKY/WX    TMP DP  RH WIND       PRES   REMARKS
ANGOLA *+      SUNNY     82  72  69 SW9       30.01S
AUBURN +       MOSUNNY   81  70  69 SW8       30.04S
FORT WAYNE     MOSUNNY   82  70  66 W13       30.04S
HUNTINGTON +   SUNNY    N/A N/A N/A SW12      30.04S

$$

INZ028-029-035-036-043>045-051>053-251700-
WEST CENTRAL INDIANA

CITY           SKY/WX    TMP DP  RH WIND       PRES   REMARKS
CRAWFORDSVL +  SUNNY     80  69  68 SW6       30.08S
GREENCASTLE +  MOSUNNY   82  77  83 CALM      30.09R
LAFAYETTE      MOSUNNY   80  70  71 W9        30.05R
TERRE HAUTE    SUNNY     86  71  60 SW8       30.07S

$$

INZ030>032-037>040-046>048-054>057-064-065-251700-
CENTRAL INDIANA

CITY           SKY/WX    TMP DP  RH WIND       PRES   REMARKS
ANDERSON       MOSUNNY   84  73  70 W6        30.07
COLUMBUS       MOSUNNY   84  77  79 SW10      30.08S
INDIANAPOLIS   MOSUNNY   86  74  67 SW13      30.07R
-EAGLE CREEK   PTSUNNY   84  72  67 SW8       30.07R
MARION +       MOSUNNY   82  70  67 SW10      30.06F
MT COMFORT *+  SUNNY     84  75  74 SW6       30.08R
SHELBYVILLE    MOSUNNY   86  76  71 SW10      30.07S HX  96
ZIONSVILLE +   MOSUNNY   81  69  67 W9G16     30.09R

$$

INZ033-034-041-042-049-050-058-059-251700-
EAST CENTRAL INDIANA

CITY           SKY/WX    TMP DP  RH WIND       PRES   REMARKS
MUNCIE         MOSUNNY   84  74  71 W8G22     30.06R

$$

INZ060-061-067>069-081>083-085>088-251700-
SOUTHWEST INDIANA

CITY           SKY/WX    TMP DP  RH WIND       PRES   REMARKS
EVANSVILLE     SUNNY     87  75  67 S8        30.10S HX  96
WASHINGTON +   SUNNY     86  76  71 MISG      30.08S HX  95

$$

INZ062-063-066-070>080-084-089>092-251700-
SOUTH CENTRAL AND SOUTHEAST INDIANA

CITY           SKY/WX    TMP DP  RH WIND       PRES   REMARKS
BLOOMINGTON    SUNNY     84  75  74 SW9       30.09S
MADISON *+     PTSUNNY   86  73  66 SW8       30.12S

$$





USA.gov is the U.S. government's official web portal to all federal, state and local government web resources and services.